Volver al catálogo

STARLINK-36279

ActivoComunicacionesVLEO
NORAD 67193·PAYLOAD·🇺🇸 United States

Lanzado Dec 17, 2025 desde Vandenberg Space Force Base

Loading…

Próximos Pases (próximas 24 horas)

TLE

ActualizadoSource: CelesTrak SupGP

Época: Sep 14, 2026, 23:14 UTC

1 67193C 25304B   26257.96854167 -.00018236  00000+0 -15282-2 0  2576
2 67193  70.0017  57.1990 0002924 270.4079 223.6126 14.98342289    13

Sigue STARLINK-36279 en tiempo real con AllMySat

Download on the App Store